Regional Weather Roundup
Issued by NWS

Home | Current Version | Previous Version | Graphics & Text | Print | Product List | Glossary On
Versions: 1 2 3 4 5 6 7 8 9 10 11 12 13 14 15 16 17 18 19 20 21 22 23 24 25 26 27 28 29 30 31 32 33 34 35 36 37 38 39 40 41 42 43 44 45 46 47 48 49 50
450
ASUS43 KBIS 242310
RWRND

NORTH DAKOTA REGIONAL WEATHER ROUNDUP
NATIONAL WEATHER SERVICE BISMARCK ND
500 PM CST FRI FEB 24 2017

NOTE: "FAIR" INDICATES FEW OR NO CLOUDS BELOW 12,000 FEET WITH NO
SIGNIFICANT WEATHER AND/OR OBSTRUCTIONS TO VISIBILITY.


NDZ001>003-009>011-017-250000-
NORTHWEST NORTH DAKOTA

CITY           SKY/WX    TMP DP  RH WIND       PRES   REMARKS
WILLISTON      CLOUDY    27  14  58 SW9       30.09F WCI  18
MINOT          PTSUNNY   28  17  63 N6        30.09S
$$

NDZ018>021-031>035-040>046-250000-
SOUTHWEST NORTH DAKOTA

CITY           SKY/WX    TMP DP  RH WIND       PRES   REMARKS
BISMARCK       FAIR      31  16  54 NW12      30.12S
DICKINSON      CLOUDY    24  13  62 W5        30.05F WCI  18
GARRISON         N/A     28  15  58 W12       30.09F WCI  18
HETTINGER ARPT CLOUDY    28  12  51 NW3       30.07F
$$

NDZ004>008-012>016-024-026-027-054-250000-
NORTHEAST NORTH DAKOTA

CITY           SKY/WX    TMP DP  RH WIND       PRES   REMARKS
GRAND FORKS    PTCLDY    20   8  60 N17       30.12R WCI   5
GRND FRKS AFB  PTCLDY    21  12  68 N15       30.11S WCI   8
DEVILS LAKE    PTSUNNY   21  13  71 N12       30.11F WCI   9
$$

NDZ022-023-025-028>030-036>039-047>053-250000-
SOUTHEAST NORTH DAKOTA

CITY           SKY/WX    TMP DP  RH WIND       PRES   REMARKS
FARGO          CLOUDY    22  14  71 N22       30.08S WCI   6
JAMESTOWN      FAIR      24  16  71 N18       30.08S WCI  10
$$





USA.gov is the U.S. government's official web portal to all federal, state and local government web resources and services.